Stations météo

réclame
Mon MeteoGroup
P11-B, Pays-Bas (6203): Température de l'air & dewpoint: 13.06.2018 16:00:00 - 19.06.2018 16:00:00 (CEST)P11-B, Pays-Bas (6203): Vitesse du vent & gusts: 13.06.2018 16:00:00 - 19.06.2018 16:00:00 (CEST)P11-B, Pays-Bas (6203): Direction du vent: 13.06.2018 16:00:00 - 19.06.2018 16:00:00 (CEST)P11-B, Pays-Bas (6203): reduced air pressure: 13.06.2018 16:00:00 - 19.06.2018 16:00:00 (CEST)P11-B, Pays-Bas (6203): visibility: 13.06.2018 16:00:00 - 19.06.2018 16:00:00 (CEST)
Date & Time tt [°C] td [°C] ff [km/h] ff [knt] fx [km/h] fx [knt] dd ppp [hPa] vv [km]
19.06.2018 16:00:00 15,5 14,0 15 8 14 8 - 1023,6 10
19.06.2018 15:00:00 15,6 14,0 11 6 29 16 SSW 1023,7 10
19.06.2018 14:00:00 15,3 14,1 8 4 7 4 SW 1023,8 10
19.06.2018 13:00:00 14,9 13,7 9 5 14 8 WSW 1023,7 10
19.06.2018 12:00:00 15,9 14,2 16 9 29 16 W 1023,2 10
19.06.2018 11:00:00 14,9 13,9 26 14 29 16 WSW 1022,8 10
19.06.2018 10:00:00 15,4 14,0 34 18 36 19 WSW 1022,3 10
19.06.2018 09:00:00 15,4 14,0 39 21 36 19 WSW 1021,8 10
19.06.2018 08:00:00 15,1 14,1 34 18 36 19 WSW 1021,0 10
19.06.2018 07:00:00 15,3 14,5 35 19 36 19 SW 1020,6 10
19.06.2018 06:00:00 15,0 14,3 37 20 40 21 SW 1020,2 10
19.06.2018 05:00:00 15,4 14,3 36 19 43 23 SW 1019,6 13
19.06.2018 04:00:00 15,5 14,2 36 19 40 21 WSW 1019,3 13
19.06.2018 03:00:00 15,8 14,1 32 18 43 23 SW 1018,7 12
19.06.2018 02:00:00 15,9 14,1 36 19 43 23 SW 1018,4 13
19.06.2018 01:00:00 15,1 13,8 41 22 47 25 SW 1018,3 10
19.06.2018 00:00:00 15,3 13,8 46 25 47 25 SW 1018,1 9
18.06.2018 23:00:00 14,9 13,5 48 26 50 27 SSW 1017,9 9
18.06.2018 22:00:00 14,7 13,2 50 27 50 27 SSW 1017,8 10
18.06.2018 21:00:00 14,6 12,9 55 30 54 29 SSW 1017,3 10
18.06.2018 20:00:00 14,7 12,8 50 27 54 29 SSW 1017,3 10
18.06.2018 19:00:00 14,8 12,9 54 29 50 27 SSW 1017,7 10
18.06.2018 18:00:00 14,7 13,5 44 24 47 25 SSW 1018,2 10
18.06.2018 17:00:00 14,7 13,6 41 22 43 23 SSW 1018,3 10
18.06.2018 16:00:00 14,6 13,9 29 16 36 19 SSW 1018,6 10
18.06.2018 15:00:00 14,5 13,9 39 21 40 21 SSW 1018,3 10
18.06.2018 14:00:00 14,5 13,9 41 22 40 21 SSW 1018,5 9
18.06.2018 13:00:00 14,7 14,2 34 18 36 19 SSW 1018,2 9
18.06.2018 12:00:00 14,6 14,4 37 20 40 21 SSW 1017,8 8
18.06.2018 11:00:00 14,4 14,3 35 19 36 19 SSW 1017,6 5
18.06.2018 10:00:00 14,3 14,2 34 18 32 18 SSW 1017,4 8
18.06.2018 09:00:00 14,1 14,0 34 18 32 18 SW 1017,1 2,7
18.06.2018 08:00:00 14,2 14,1 37 20 36 19 SSW 1016,5 4,0
18.06.2018 07:00:00 14,0 13,9 41 22 40 21 SSW 1016,4 1,0
18.06.2018 06:00:00 14,0 13,9 39 21 40 21 SSW 1016,4 3,7
18.06.2018 05:00:00 14,2 13,8 41 22 43 23 SW 1016,1 9
18.06.2018 04:00:00 14,2 13,6 41 22 43 23 SW 1016,1 10
18.06.2018 03:00:00 14,1 13,3 37 20 40 21 SSW 1016,2 10
18.06.2018 02:00:00 14,1 13,0 39 21 43 23 SSW 1016,5 10
18.06.2018 01:00:00 14,3 12,9 41 22 43 23 SSW 1016,6 10
18.06.2018 00:00:00 14,3 13,0 41 22 40 21 SSW 1017,0 9
17.06.2018 23:00:00 14,3 12,9 39 21 40 21 SSW 1016,8 10
17.06.2018 22:00:00 14,3 12,6 41 22 43 23 SSW 1016,8 10
17.06.2018 21:00:00 14,6 12,8 41 22 40 21 SSW 1016,8 10
17.06.2018 20:00:00 14,3 12,8 37 20 40 21 SSW 1016,9 10
17.06.2018 19:00:00 14,2 12,3 37 20 40 21 SSW 1016,7 10
17.06.2018 18:00:00 14,1 12,8 39 21 36 19 SSW 1017,0 10
17.06.2018 17:00:00 14,1 12,5 31 17 32 18 SSW 1017,2 10
17.06.2018 16:00:00 14,1 12,3 31 17 36 19 SSW 1017,1 10
17.06.2018 15:00:00 14,1 12,2 34 18 36 19 SSW 1016,7 10
17.06.2018 14:00:00 14,0 12,2 28 15 29 16 SW 1016,5 10
17.06.2018 13:00:00 14,0 12,1 26 14 29 16 SW 1016,3 10
17.06.2018 12:00:00 13,9 11,7 29 16 32 18 SW 1016,0 10
17.06.2018 11:00:00 13,8 11,3 29 16 36 19 WSW 1016,0 10
17.06.2018 10:00:00 13,7 11,0 31 17 32 18 WSW 1015,7 10
17.06.2018 09:00:00 13,6 11,1 35 19 36 19 WSW 1015,0 10
17.06.2018 08:00:00 13,4 10,7 34 18 36 19 WSW 1014,5 10
17.06.2018 07:00:00 13,4 10,9 37 20 40 21 WSW 1014,1 10
17.06.2018 06:00:00 13,5 10,8 41 22 40 21 WSW 1013,4 10
17.06.2018 05:00:00 14,0 10,9 39 21 36 19 WSW 1013,3 10
17.06.2018 04:00:00 14,2 12,8 39 21 40 21 SW 1013,2 10
17.06.2018 03:00:00 14,2 13,0 41 22 47 25 SSW 1012,9 10
17.06.2018 02:00:00 14,1 12,9 41 22 47 25 SSW 1012,6 10
17.06.2018 01:00:00 14,0 12,8 48 26 47 25 SSW 1012,8 10
17.06.2018 00:00:00 14,4 13,0 44 24 47 25 SSW 1012,8 10
16.06.2018 23:00:00 14,3 12,8 48 26 47 25 SSW 1013,0 10
16.06.2018 22:00:00 14,3 12,7 44 24 47 25 SSW 1012,9 10
16.06.2018 21:00:00 14,4 12,4 46 25 47 25 SSW 1012,9 10
16.06.2018 20:00:00 14,2 12,2 46 25 47 25 SSW 1012,9 10
16.06.2018 19:00:00 14,2 11,9 41 22 40 21 SSW 1013,2 10
16.06.2018 18:00:00 14,2 12,0 37 20 40 21 SSW 1013,6 10
16.06.2018 17:00:00 14,2 12,6 29 16 32 18 SSW 1014,2 10
16.06.2018 16:00:00 14,4 12,8 26 14 25 14 SSW 1014,3 10
16.06.2018 15:00:00 14,4 12,4 24 13 22 12 SSW 1014,4 10
16.06.2018 14:00:00 14,2 11,9 11 6 18 10 SSW 1014,5 10
16.06.2018 13:00:00 14,1 11,5 15 8 18 10 W 1014,5 10
16.06.2018 12:00:00 14,1 12,2 16 9 18 10 W 1014,4 10
16.06.2018 11:00:00 13,6 13,2 16 9 25 14 WSW 1014,2 9
16.06.2018 10:00:00 13,9 13,6 18 10 22 12 S 1014,0 7
16.06.2018 09:00:00 14,1 13,7 24 13 25 14 S 1013,8 8
16.06.2018 08:00:00 13,9 13,6 24 13 25 14 S 1013,8 8
16.06.2018 07:00:00 13,8 13,4 18 10 25 14 SSW 1013,8 8
16.06.2018 06:00:00 14,0 13,1 22 12 25 14 SSW 1013,9 10
16.06.2018 05:00:00 14,2 12,8 18 10 22 12 S 1014,2 16
16.06.2018 04:00:00 14,1 13,5 18 10 18 10 SSE 1014,5 15
16.06.2018 03:00:00 13,6 13,5 14 8 18 10 SSE 1014,9 10
16.06.2018 02:00:00 13,2 13,1 14 8 14 8 SSE 1015,4 7
16.06.2018 01:00:00 13,0 12,9 11 6 14 8 SE 1015,6 0,7
16.06.2018 00:00:00 12,8 12,7 13 7 18 10 S 1016,0 0,2
15.06.2018 23:00:00 12,7 12,6 11 6 18 10 SE 1016,1 0,3
15.06.2018 22:00:00 12,7 12,7 15 8 18 10 ESE 1015,9 0,2
15.06.2018 21:00:00 12,8 12,7 15 8 14 8 E 1015,9 5
15.06.2018 20:00:00 12,4 12,4 9 5 11 6 E 1016,2 0,1
15.06.2018 19:00:00 12,7 12,7 8 4 7 4 E 1016,4 0,1
15.06.2018 18:00:00 13,4 13,4 2 1 7 4 - 1016,7 0,2
15.06.2018 17:00:00 13,9 13,9 4 2 7 4 - 1016,9 2,9
15.06.2018 16:00:00 14,0 14,0 4 2 7 4 - 1017,1 1,2
15.06.2018 15:00:00 14,0 14,0 5 3 11 6 - 1017,1 0,9
15.06.2018 14:00:00 13,8 13,8 11 6 14 8 SSW 1017,2 1,5
15.06.2018 13:00:00 14,1 14,1 13 7 18 10 SSE 1017,1 0,4
15.06.2018 12:00:00 14,1 13,9 15 8 18 10 SE 1016,8 2,3
15.06.2018 11:00:00 14,7 14,4 11 6 14 8 S 1017,0 4,0
15.06.2018 10:00:00 14,5 14,2 13 7 18 10 S 1016,6 4,5
15.06.2018 09:00:00 14,2 13,8 15 8 22 12 SE 1016,2 4,7
15.06.2018 08:00:00 14,6 13,5 13 7 14 8 ESE 1015,9 10
15.06.2018 07:00:00 15,1 13,8 8 4 7 4 E 1015,9 10
15.06.2018 06:00:00 14,0 13,5 5 3 11 6 E 1015,7 10
15.06.2018 05:00:00 14,3 13,2 9 5 11 6 ESE 1015,5 10
15.06.2018 04:00:00 14,3 13,1 13 7 14 8 E 1015,4 10
15.06.2018 03:00:00 15,0 11,3 13 7 14 8 ENE 1015,6 10
15.06.2018 02:00:00 17,2 8,3 13 7 14 8 NNE 1015,4 10
15.06.2018 01:00:00 15,9 10,7 9 5 18 10 N 1015,5 10
15.06.2018 00:00:00 14,2 13,6 9 5 14 8 W 1015,4 9
14.06.2018 23:00:00 13,9 13,7 13 7 14 8 SW 1015,0 7
14.06.2018 22:00:00 13,9 13,8 18 10 22 12 SW 1014,4 6
14.06.2018 21:00:00 13,6 13,5 24 13 36 19 SW 1013,8 0,4
14.06.2018 20:00:00 13,6 13,5 39 21 43 23 SW 1013,1 4,6
14.06.2018 19:00:00 13,7 13,5 50 27 54 29 SSW 1012,0 6
14.06.2018 18:00:00 13,9 13,3 52 28 58 31 SSW 1011,2 8
14.06.2018 17:00:00 14,1 13,3 57 31 65 35 SSW 1010,6 9
14.06.2018 16:00:00 14,1 13,2 65 35 65 35 SSW 1010,4 10
14.06.2018 15:00:00 14,1 13,3 59 32 65 35 SSW 1010,4 8
14.06.2018 14:00:00 13,6 12,7 65 35 68 37 SSW 1010,1 9
14.06.2018 13:00:00 14,7 12,3 59 32 65 35 SSW 1009,5 10
14.06.2018 12:00:00 14,6 12,0 57 31 61 33 S 1008,7 10
14.06.2018 11:00:00 14,7 12,0 55 30 58 31 S 1009,3 10
14.06.2018 10:00:00 14,7 11,8 48 26 54 29 S 1010,2 10
14.06.2018 09:00:00 14,7 11,3 48 26 50 27 S 1010,4 10
14.06.2018 08:00:00 14,4 11,3 46 25 47 25 S 1010,8 10
14.06.2018 07:00:00 14,6 11,1 46 25 50 27 S 1011,1 10
14.06.2018 06:00:00 14,4 11,0 44 24 47 25 S 1011,8 10
14.06.2018 05:00:00 14,4 10,2 44 24 43 23 SSW 1012,3 10
14.06.2018 04:00:00 14,3 10,5 42 23 43 23 SSW 1013,0 10
14.06.2018 03:00:00 14,5 10,5 39 21 40 21 SSW 1014,0 10
14.06.2018 02:00:00 14,5 10,8 39 21 40 21 SSW 1014,4 10
14.06.2018 01:00:00 14,3 11,2 37 20 36 19 SSW 1015,1 10
14.06.2018 00:00:00 14,3 10,1 35 19 36 19 SSW 1015,7 10
13.06.2018 23:00:00 14,3 9,9 35 19 36 19 SSW 1015,8 10
13.06.2018 22:00:00 14,3 9,8 31 17 32 18 SSW 1016,0 10
13.06.2018 21:00:00 14,1 9,7 29 16 29 16 SSW 1016,0 10
13.06.2018 20:00:00 13,8 9,8 29 16 29 16 SSW 1016,4 10
13.06.2018 19:00:00 13,6 10,5 28 15 43 23 SSW 1016,8 10
13.06.2018 18:00:00 13,4 10,4 24 13 25 14 SSW 1017,2 10
13.06.2018 17:00:00 13,3 10,1 21 11 18 10 SW 1017,7 10
13.06.2018 16:00:00 13,3 10,0 15 8 14 8 SW 1018,3 10

tt = Température de l'air
td = dewpoint
ff = Vitesse du vent
fx = gusts
dd = Direction du vent
ppp = reduced air pressure
vv = visibility

stations d'obs. à proximité